KC8P Weather Reports


Display with metric or nautical units.
time (UTC)temp
F
wind
direction
speed
MPH
gust
MPH
rain 1hr
in
rain 24hr
in
rain mn
in
humidity
%
barometer
mb
20260904043657 65 197 0.0 0.0 0.00 0.00 0.23 98 1015.6
20260904043551 65 197 0.0 0.0 0.00 0.00 0.23 98 1015.6
20260904043446 65 198 0.0 0.0 0.00 0.00 0.23 98 1015.9
20260904043340 65 198 0.0 0.0 0.00 0.00 0.23 98 1015.9
20260904043234 65 198 0.0 0.0 0.00 0.00 0.23 98 1015.9
20260904043129 65 198 0.0 0.0 0.00 0.00 0.23 98 1015.9
20260904043023 65 198 0.0 0.0 0.00 0.00 0.23 98 1015.9
20260904042956 65 198 0.0 0.0 0.00 0.00 0.23 98 1015.6
20260904042952 65 198 0.0 0.0 0.00 0.00 0.23 98 1015.9
20260904042944 65 198 0.0 0.0 0.00 0.00 0.23 98 1015.9
20260904042706 65 198 0.0 0.0 0.00 0.00 0.23 98 1015.6
20260904042600 65 198 0.0 0.0 0.00 0.00 0.23 98 1015.6
20260904042455 65 198 0.0 0.0 0.00 0.00 0.23 98 1015.6
20260904042349 65 198 0.0 0.0 0.00 0.00 0.23 98 1015.6
20260904042216 65 197 0.0 0.0 0.00 0.00 0.23 98 1015.9
20260904042138 65 197 0.0 0.0 0.00 0.00 0.23 98 1015.6
20260904042032 65 197 0.0 0.0 0.00 0.00 0.23 98 1015.9
20260904041926 65 197 0.0 0.0 0.00 0.00 0.23 98 1015.9
20260904041820 65 197 0.0 0.0 0.00 0.00 0.23 98 1015.9
20260904041714 65 197 0.0 0.0 0.00 0.00 0.23 98 1015.6
20260904041609 65 198 0.0 0.0 0.00 0.00 0.23 98 1015.9
20260904041503 65 202 0.0 0.0 0.00 0.00 0.23 98 1015.6
20260904041357 65 209 0.0 0.0 0.00 0.00 0.23 98 1015.6
20260904041252 65 214 0.0 0.0 0.00 0.00 0.23 98 1015.6
20260904041203 65 214 0.0 0.0 0.00 0.00 0.23 98 1015.6
20260904041148 65 214 0.0 0.0 0.00 0.00 0.23 98 1015.6
20260904041041 65 214 0.0 0.0 0.00 0.00 0.23 98 1015.6
20260904040935 65 214 0.0 0.0 0.00 0.00 0.23 98 1015.3
20260904040829 65 214 0.0 0.0 0.00 0.00 0.23 98 1015.6
20260904040723 65 213 0.0 0.0 0.00 0.00 0.23 98 1015.6
20260904040656 65 210 0.0 0.0 0.00 0.00 0.23 98 1015.6
20260904040617 65 210 0.0 0.0 0.00 0.00 0.23 98 1015.6
20260904040511 65 210 0.0 0.0 0.00 0.00 0.23 98 1015.3
20260904040405 65 210 0.0 0.0 0.00 0.00 0.23 98 1015.3
20260904040313 65 208 0.0 0.0 0.00 0.00 0.23 98 1015.3
20260904040154 65 208 0.0 0.0 0.00 0.00 0.23 98 1015.3
20260903153637 67 311 9.0 32.0 0.67 0.72 0.76 94 1017.7
20260903153530 68 343 9.0 32.0 0.59 0.64 0.69 94 1016.9
20260903153425 69 244 16.0 32.0 0.52 0.57 0.61 93 1016.9
20260903153319 70 237 0.0 21.0 0.41 0.46 0.54 93 1016.6
20260903153242 71 281 7.0 21.0 0.41 0.46 0.49 93 1016.6
20260903153214 72 341 12.0 21.0 0.28 0.33 0.45 92 1016.9
20260903153108 73 339 14.0 21.0 0.17 0.22 0.32 91 1016.9
20260903153002 76 283 12.0 21.0 0.04 0.09 0.21 89 1016.9
20260903152857 76 78 8.0 16.0 0.02 0.07 0.08 89 1017.3
20260903152750 77 261 4.0 6.0 0.02 0.07 0.06 89 1016.9
20260903152735 77 261 4.0 6.0 0.02 0.07 0.06 89 1016.6
20260903152646 77 233 3.0 4.0 0.00 0.05 0.06 89 1016.6
20260903152539 77 227 1.0 1.0 0.00 0.05 0.04 89 1015.9
20260903152434 77 225 0.0 1.0 0.00 0.05 0.04 88 1015.6
20260903152328 77 225 1.0 1.0 0.00 0.05 0.04 88 1015.6
20260903152222 77 211 0.0 1.0 0.00 0.05 0.04 88 1015.3
20260903152117 77 206 0.0 1.0 0.00 0.05 0.04 88 1015.3
20260903152011 78 206 0.0 1.0 0.00 0.05 0.04 88 1015.3
20260903151906 78 206 1.0 1.0 0.00 0.05 0.04 87 1014.9
20260903151759 78 205 1.0 1.0 0.00 0.05 0.04 87 1014.9
20260903151722 78 204 0.0 1.0 0.00 0.05 0.04 86 1014.9
20260903151653 78 195 0.0 1.0 0.00 0.05 0.04 86 1014.9
20260903151548 78 195 0.0 1.0 0.00 0.05 0.04 86 1014.9
20260903151442 78 195 0.0 1.0 0.00 0.05 0.04 86 1014.6
20260903151337 78 195 0.0 1.0 0.00 0.05 0.04 86 1014.9
20260903151230 78 195 0.0 1.0 0.00 0.05 0.04 86 1014.9
20260903151215 78 194 0.0 1.0 0.00 0.05 0.04 86 1014.9
20260903151125 78 196 0.0 1.0 0.00 0.05 0.04 86 1014.6
20260903151019 78 198 0.0 1.0 0.00 0.05 0.04 86 1014.9
20260903150914 78 185 0.0 1.0 0.00 0.05 0.04 86 1014.6
20260903150820 78 182 0.0 1.0 0.00 0.05 0.04 86 1014.2
20260903150708 78 213 0.0 1.0 0.00 0.05 0.04 86 1014.9
20260903150702 78 214 0.0 1.0 0.00 0.05 0.04 86 1014.9
20260903150609 78 214 0.0 1.0 0.00 0.05 0.04 86 1014.6
20260903150451 78 215 0.0 1.0 0.00 0.05 0.04 86 1014.6
20260903150345 78 214 0.0 2.0 0.00 0.05 0.04 86 1014.6
20260903150240 78 214 0.0 4.0 0.00 0.05 0.04 86 1014.9
20260903150202 78 214 0.0 4.0 0.00 0.05 0.04 85 1014.9
20260903150134 78 214 0.0 4.0 0.00 0.05 0.04 85 1014.2
20260903150029 78 214 0.0 4.0 0.00 0.05 0.04 85 1014.2
20260903145923 79 214 0.0 4.0 0.00 0.05 0.04 84 1014.2
20260903145817 79 195 0.0 4.0 0.00 0.05 0.04 84 1014.2
20260903145711 79 195 0.0 4.0 0.00 0.05 0.04 84 1014.2
20260903145655 79 195 0.0 4.0 0.00 0.05 0.04 84 1014.2
20260903145606 79 195 0.0 4.0 0.00 0.05 0.04 84 1014.2
20260903145459 79 188 1.0 4.0 0.00 0.05 0.04 84 1013.9
20260903145354 79 203 0.0 4.0 0.00 0.05 0.04 84 1014.2
20260903145248 79 199 2.0 3.0 0.00 0.05 0.04 84 1013.9
20260903145149 79 211 2.0 3.0 0.00 0.05 0.04 84 1013.9
20260903145142 79 183 2.0 3.0 0.00 0.05 0.04 84 1013.9
20260903145036 79 178 0.0 3.0 0.00 0.05 0.04 84 1013.9
20260903144931 80 188 2.0 3.0 0.00 0.05 0.04 82 1014.2
20260903144825 80 169 1.0 2.0 0.00 0.05 0.04 83 1014.2
20260903144719 80 173 2.0 2.0 0.00 0.05 0.04 82 1013.9
20260903144642 80 177 1.0 2.0 0.00 0.05 0.04 82 1013.9
20260903144614 80 171 1.0 2.0 0.00 0.05 0.04 82 1013.9
20260903144509 81 187 1.0 2.0 0.00 0.05 0.04 81 1013.9
20260903144418 81 133 0.0 2.0 0.00 0.05 0.04 80 1014.2
20260903144413 81 148 0.0 2.0 0.00 0.05 0.04 81 1013.9
20260903144404 81 135 0.0 2.0 0.00 0.05 0.04 80 1014.2
20260903144355 81 131 0.0 2.0 0.00 0.05 0.04 80 1014.2
20260903144046 81 134 0.0 2.0 0.00 0.05 0.04 80 1014.2
20260903143939 81 135 0.0 3.0 0.00 0.05 0.04 80 1013.9
20260903143901 82 140 0.0 3.0 0.00 0.05 0.04 77 1014.2
20260903143857 82 103 1.0 3.0 0.00 0.05 0.04 79 1014.2
20260903143848 82 138 0.0 3.0 0.00 0.05 0.04 78 1014.2
20260903143623 82 140 0.0 3.0 0.00 0.05 0.04 77 1014.2
20260903143517 82 126 0.0 3.0 0.00 0.05 0.04 77 1013.9
20260903143411 82 131 0.0 3.0 0.00 0.05 0.04 77 1013.9
20260903143306 82 121 0.0 3.0 0.00 0.05 0.04 77 1013.9
20260903143159 82 112 0.0 3.0 0.00 0.05 0.04 77 1013.9
20260903143121 82 249 0.0 3.0 0.00 0.05 0.04 77 1014.2
20260903143053 82 232 1.0 3.0 0.00 0.05 0.04 77 1014.2
20260903142947 82 288 1.0 3.0 0.00 0.05 0.04 77 1014.2
20260903142852 82 211 2.0 3.0 0.00 0.05 0.04 76 1014.2
20260903142843 83 145 1.0 3.0 0.00 0.05 0.04 76 1014.2
20260903142834 83 189 3.0 3.0 0.00 0.05 0.04 76 1014.2
20260903142524 83 227 2.0 3.0 0.00 0.05 0.04 76 1014.6
20260903142419 83 153 1.0 2.0 0.00 0.05 0.04 75 1014.2
20260903142339 83 225 1.0 2.0 0.00 0.05 0.04 76 1014.2
20260903142335 83 207 2.0 2.0 0.00 0.05 0.04 76 1014.2
20260903142327 83 231 1.0 2.0 0.00 0.05 0.04 76 1014.6
20260903142103 83 225 1.0 2.0 0.00 0.05 0.04 76 1014.2
20260903141956 83 165 0.0 2.0 0.00 0.05 0.04 75 1014.2
20260903141851 83 218 1.0 2.0 0.00 0.05 0.04 75 1014.2
20260903141745 84 255 2.0 2.0 0.00 0.05 0.04 75 1013.9
20260903141638 84 122 0.0 2.0 0.00 0.05 0.04 76 1013.9
20260903141602 84 135 0.0 2.0 0.00 0.05 0.04 76 1013.9
20260903141533 84 130 0.0 2.0 0.00 0.05 0.04 76 1014.2
20260903141428 84 206 1.0 2.0 0.00 0.05 0.04 74 1014.2
20260903141334 82 140 0.0 1.0 0.00 0.05 0.04 76 1013.9
20260903141330 84 204 0.0 1.0 0.00 0.05 0.04 76 1014.2
20260903141321 83 133 0.0 1.0 0.00 0.05 0.04 76 1014.2
20260903141312 83 148 0.0 1.0 0.00 0.05 0.04 76 1013.9
20260903141005 82 141 0.0 1.0 0.00 0.05 0.04 77 1014.2
20260903140859 82 182 0.0 1.0 0.00 0.05 0.04 77 1014.2
20260903140818 82 266 0.0 1.0 0.00 0.05 0.04 77 1014.2
20260903140814 82 158 0.0 1.0 0.00 0.05 0.04 77 1013.9
20260903140806 82 322 0.0 1.0 0.00 0.05 0.04 77 1013.9
20260903140542 82 255 0.0 1.0 0.00 0.05 0.04 77 1013.9
20260903140435 82 195 0.0 2.0 0.00 0.05 0.04 77 1013.9
20260903140330 82 191 0.0 2.0 0.00 0.05 0.04 77 1013.9
20260903140223 82 140 0.0 2.0 0.00 0.05 0.04 77 1013.9
20260903140117 82 130 0.0 2.0 0.00 0.05 0.04 77 1013.5
20260903140040 81 148 0.0 2.0 0.00 0.05 0.04 77 1013.5
20260903140012 81 166 0.0 2.0 0.00 0.05 0.04 77 1013.9
20260903135905 81 184 0.0 2.0 0.00 0.05 0.04 78 1013.5
20260903135800 81 176 0.0 2.0 0.00 0.05 0.04 78 1013.9
20260903135655 81 214 0.0 2.0 0.00 0.05 0.04 78 1013.5